Back to catalog

STARLINK-38247

AliveCommunicationsSSO
NORAD 100303·PAYLOAD·🇺🇸 United States

Launched Aug 12, 2026 from Vandenberg Space Force Base

Loading…

Next Passes (next 24 hours)

TLE

FreshSource: Space-Track

Epoch: Sep 14, 2026, 14:42 UTC

1 A0303U 26184C   26257.61293900  .00008087  00000-0  25252-3 0  9991
2 A0303  97.2832 122.7476 0001569  92.9298 267.2125 15.33449203  6452

Track STARLINK-38247 in real time with AllMySat

Download on the App Store